IK5WWP Weather Reports


Display with metric or nautical units.
time (UTC)temp
F
wind
direction
speed
MPH
gust
MPH
rain 1hr
in
rain 24hr
in
rain mn
in
humidity
%
barometer
mb
20260901171527 83 42 1.0 2.0 0.00 0.00 0.00 51 1015.6
20260901165727 84 41 1.0 4.0 0.00 0.00 0.00 46 1015.6
20260901163027 85 29 0.0 4.0 0.00 0.00 0.00 45 1015.5
20260901162127 85 68 2.0 4.0 0.00 0.00 0.00 45 1015.5
20260901161227 86 81 0.0 4.0 0.00 0.00 0.00 45 1015.5
20260901160327 86 90 2.0 4.0 0.00 0.00 0.00 47 1015.6
20260901155427 86 55 2.0 4.0 0.00 0.00 0.00 48 1015.6
20260901153627 86 29 1.0 7.0 0.00 0.00 0.00 47 1015.6
20260901152727 86 53 3.0 6.0 0.00 0.00 0.00 48 1015.7
20260901151827 87 35 2.0 6.0 0.00 0.00 0.00 51 1015.5
20260901150927 87 64 2.0 4.0 0.00 0.00 0.00 52 1015.5
20260901150027 88 67 2.0 2.0 0.00 0.00 0.00 54 1015.7
20260901145127 87 59 2.0 4.0 0.00 0.00 0.00 56 1015.6
20260901144227 87 49 2.0 9.0 0.00 0.00 0.00 54 1015.9
20260901143327 87 64 3.0 6.0 0.00 0.00 0.00 56 1015.6
20260901142427 87 53 1.0 4.0 0.00 0.00 0.00 57 1015.7
20260901141527 87 69 2.0 6.0 0.00 0.00 0.00 56 1015.8
20260901140627 88 47 3.0 7.0 0.00 0.00 0.00 56 1015.5
20260901135727 88 54 2.0 6.0 0.00 0.00 0.00 55 1015.7
20260901134827 88 57 2.0 6.0 0.00 0.00 0.00 55 1015.7
20260901133927 89 92 2.0 6.0 0.00 0.00 0.00 53 1015.7
20260901133027 90 75 4.0 6.0 0.00 0.00 0.00 50 1015.8
20260901131227 91 69 0.0 4.0 0.00 0.00 0.00 46 1015.8
20260901130327 91 61 3.0 4.0 0.00 0.00 0.00 45 1015.7
20260901125427 89 69 2.0 6.0 0.00 0.00 0.00 47 1016.1
20260901124527 91 78 2.0 6.0 0.00 0.00 0.00 46 1015.7
20260901123627 90 47 2.0 4.0 0.00 0.00 0.00 47 1015.9
20260901122727 90 44 1.0 4.0 0.00 0.00 0.00 48 1016.1
20260901121827 91 84 1.0 4.0 0.00 0.00 0.00 48 1016.0
20260901120927 90 91 1.0 4.0 0.00 0.00 0.00 50 1016.0
20260901120027 89 51 1.0 4.0 0.00 0.00 0.00 52 1016.1
20260901115127 90 79 2.0 4.0 0.00 0.00 0.00 51 1016.3
20260901114227 90 83 1.0 4.0 0.00 0.00 0.00 54 1016.0
20260901113327 88 42 1.0 4.0 0.00 0.00 0.00 56 1016.4
20260901112427 87 57 1.0 4.0 0.00 0.00 0.00 58 1016.1
20260901111527 88 43 2.0 4.0 0.00 0.00 0.00 57 1016.1
20260901110627 87 91 1.0 4.0 0.00 0.00 0.00 58 1016.1
20260901105727 90 71 1.0 6.0 0.00 0.00 0.00 55 1016.5
20260901104827 89 90 2.0 6.0 0.00 0.00 0.00 56 1016.4
20260901103927 88 109 1.0 4.0 0.00 0.00 0.00 58 1016.1
20260901103027 87 96 2.0 4.0 0.00 0.00 0.00 58 1016.3
20260901102127 87 73 1.0 4.0 0.00 0.00 0.00 56 1016.5
20260901101228 87 65 1.0 4.0 0.00 0.00 0.00 59 1016.3
20260901100327 86 104 3.0 7.0 0.00 0.00 0.00 62 1016.4
20260901095427 86 98 1.0 6.0 0.00 0.00 0.00 63 1016.5
20260901094527 86 101 2.0 4.0 0.00 0.00 0.00 63 1016.5
20260901093627 85 94 3.0 4.0 0.00 0.00 0.00 66 1016.7
20260901092727 85 85 2.0 4.0 0.00 0.00 0.00 67 1016.5
20260901091827 85 73 2.0 4.0 0.00 0.00 0.00 67 1016.5
20260901090927 83 86 2.0 4.0 0.00 0.00 0.00 68 1016.6
20260901090027 83 83 2.0 4.0 0.00 0.00 0.00 69 1016.7
20260901085127 83 73 1.0 4.0 0.00 0.00 0.00 69 1016.7
20260901084227 81 88 2.0 4.0 0.00 0.00 0.00 71 1016.6
20260901083327 82 72 1.0 2.0 0.00 0.00 0.00 70 1016.4
20260901082427 80 81 0.0 4.0 0.00 0.00 0.00 72 1016.6
20260901081527 79 68 2.0 4.0 0.00 0.00 0.00 73 1016.4
20260901080627 78 68 2.0 4.0 0.00 0.00 0.00 75 1016.6
20260901074828 78 66 1.0 4.0 0.00 0.00 0.00 77 1016.4
20260901073927 77 61 0.0 4.0 0.00 0.00 0.00 77 1016.3
20260901073028 77 45 0.0 2.0 0.00 0.00 0.00 78 1016.1
20260901072128 76 45 0.0 4.0 0.00 0.00 0.00 78 1015.9
20260901071228 75 0 0.0 0.0 0.00 0.00 0.00 79 1016.2
20260901070329 74 23 0.0 2.0 0.00 0.00 0.00 80 1016.1
20260901065427 74 22 0.0 2.0 0.00 0.00 0.00 81 1016.0
20260901064527 73 23 0.0 2.0 0.00 0.00 0.00 81 1016.3
20260901063628 73 23 0.0 2.0 0.00 0.00 0.00 82 1016.2
20260901061828 72 0 0.0 0.0 0.00 0.00 0.00 83 1016.1
20260901060927 71 23 0.0 2.0 0.00 0.00 0.00 83 1016.1
20260901060027 71 22 0.0 2.0 0.00 0.00 0.00 83 1016.3
20260901055127 71 22 0.0 2.0 0.00 0.00 0.00 83 1015.9
20260901054227 71 23 0.0 2.0 0.00 0.00 0.00 84 1016.1
20260901053328 70 23 0.0 2.0 0.00 0.00 0.00 84 1016.2
20260901051528 70 22 0.0 2.0 0.00 0.00 0.00 83 1015.9
20260901050628 70 22 0.0 2.0 0.00 0.00 0.00 83 1015.9
20260901045728 70 22 0.0 2.0 0.00 0.00 0.00 83 1016.0
20260901043928 70 23 1.0 2.0 0.00 0.00 0.00 84 1016.0
20260901043028 70 23 0.0 2.0 0.00 0.00 0.00 84 1015.6
20260901041228 70 23 0.0 2.0 0.00 0.00 0.00 83 1015.9
20260901040328 70 21 0.0 2.0 0.00 0.00 0.00 83 1015.7
20260901035428 70 28 0.0 2.0 0.00 0.00 0.00 83 1015.8
20260901034528 70 23 0.0 2.0 0.00 0.00 0.00 83 1016.1
20260901033628 70 23 0.0 2.0 0.00 0.00 0.00 82 1015.8
20260901032728 70 22 0.0 2.0 0.00 0.00 0.00 82 1016.0
20260901031828 70 29 0.0 2.0 0.00 0.00 0.00 82 1015.9
20260901030028 69 27 0.0 2.0 0.00 0.00 0.00 83 1016.1
20260901024228 69 46 0.0 2.0 0.00 0.00 0.00 83 1016.2
20260901023328 70 0 0.0 0.0 0.00 0.00 0.00 83 1015.8
20260901022428 69 0 0.0 0.0 0.00 0.00 0.00 83 1016.0
20260901021528 69 0 0.0 0.0 0.00 0.00 0.00 83 1015.9
20260901020628 69 0 0.0 0.0 0.00 0.00 0.00 83 1015.8
20260901015728 69 0 0.0 0.0 0.00 0.00 0.00 84 1015.8
20260901014828 70 0 0.0 0.0 0.00 0.00 0.00 83 1015.7
20260901013928 70 0 0.0 0.0 0.00 0.00 0.00 81 1015.7
20260901013028 70 45 0.0 2.0 0.00 0.00 0.00 82 1015.6
20260901012128 69 0 0.0 0.0 0.00 0.00 0.00 83 1015.8
20260901011228 71 0 0.0 0.0 0.00 0.00 0.00 84 1015.6
20260901010328 70 0 0.0 0.0 0.00 0.00 0.00 84 1015.7
20260901005428 70 0 0.0 0.0 0.00 0.00 0.00 84 1015.5
20260901004528 70 0 0.0 0.0 0.00 0.00 0.00 82 1015.6
20260901003628 70 23 0.0 2.0 0.00 0.00 0.00 81 1015.6
20260901002728 70 23 0.0 2.0 0.00 0.00 0.00 81 1015.8
20260901000928 71 22 0.0 2.0 0.00 0.00 0.00 80 1015.9
20260901000028 71 22 0.0 2.0 0.00 0.00 0.00 81 1015.9
20260831232428 71 23 0.0 2.0 0.00 0.00 0.00 79 1016.0
20260831231528 70 23 0.0 2.0 0.00 0.00 0.00 80 1015.9
20260831230628 70 23 1.0 2.0 0.00 0.00 0.00 80 1015.9
20260831225728 71 22 0.0 2.0 0.00 0.00 0.00 80 1015.8
20260831224828 71 0 0.0 0.0 0.00 0.00 0.00 81 1015.8
20260831223028 71 22 0.0 2.0 0.00 0.00 0.00 79 1015.5
20260831222128 71 29 0.0 2.0 0.00 0.00 0.00 79 1015.5
20260831221228 71 37 0.0 2.0 0.00 0.00 0.00 79 1015.5
20260831215447 71 27 0.0 4.0 0.00 0.00 0.00 79 1015.3
20260831213647 71 27 2.0 4.0 0.00 0.00 0.00 78 1015.3
20260831212747 72 31 1.0 4.0 0.00 0.00 0.00 78 1015.1
20260831211847 71 26 2.0 4.0 0.00 0.00 0.00 79 1015.0
20260831210947 71 30 1.0 4.0 0.00 0.00 0.00 79 1015.2
20260831210047 72 28 1.0 4.0 0.00 0.00 0.00 79 1014.9
20260831205147 72 25 1.0 4.0 0.00 0.00 0.00 79 1014.9
20260831204247 72 29 1.0 2.0 0.00 0.00 0.00 78 1014.8
20260831203347 72 43 1.0 2.0 0.00 0.00 0.00 78 1014.9
20260831202448 73 40 0.0 2.0 0.00 0.00 0.00 76 1014.8
20260831201547 73 33 1.0 4.0 0.00 0.00 0.00 76 1014.8
20260831195748 73 32 0.0 4.0 0.00 0.00 0.00 78 1014.6
20260831192148 74 36 1.0 2.0 0.00 0.00 0.00 78 1014.3
20260831191248 75 30 0.0 2.0 0.00 0.00 0.00 77 1014.3
20260831190348 76 0 0.0 0.0 0.00 0.00 0.00 75 1014.5
20260831185447 76 46 0.0 2.0 0.00 0.00 0.00 75 1014.5
20260831184547 77 23 0.0 2.0 0.00 0.00 0.00 74 1014.4
20260831183648 77 0 0.0 0.0 0.00 0.00 0.00 75 1014.0
20260831182748 78 38 0.0 2.0 0.00 0.00 0.00 74 1014.1
20260831180948 79 57 0.0 2.0 0.00 0.00 0.00 72 1013.9
20260831180048 79 68 0.0 2.0 0.00 0.00 0.00 72 1013.9
20260831175148 79 54 1.0 2.0 0.00 0.00 0.00 71 1014.0
20260831173348 80 55 0.0 4.0 0.00 0.00 0.00 70 1013.7
20260831172448 80 76 1.0 4.0 0.00 0.00 0.00 68 1013.9